Theta_e
313 316 317 317 318 318 318 318 322 327 327 329 330 332 332 333 333 333 333 332 331 330 329 327 326 326 326 326 325 322 322 323 323 322 321 322 322 322 322 321 320 319 319
314 314 316 316 317 318 318 318 319 320 326 327 328 330 332 333 333 334 334 333 333 333 332 330 329 327 326 326 326 324 322 322 323 322 321 322 323 322 322 321 321 321 320
315 314 314 315 316 316 318 318 317 319 322 326 329 330 332 333 333 333 333 333 333 333 333 332 331 329 327 326 326 326 324 323 323 323 323 323 322 314 320 321 321 321 320
314 314 314 315 316 315 315 316 318 319 320 320 321 327 329 329 330 331 331 332 332 332 332 332 332 332 330 328 327 327 327 324 325 324 323 324 323 321 321 320 320 319 319
314 314 314 316 316 315 315 315 315 315 316 320 321 321 322 323 324 324 325 325 326 326 327 328 331 332 331 331 330 329 328 328 327 326 326 324 324 324 323 324 322 321 322
313 313 315 316 316 316 316 316 315 315 315 314 315 315 315 315 315 316 316 317 319 322 324 325 327 331 331 331 331 330 330 330 329 329 328 326 324 324 323 324 323 322 322
313 314 313 314 315 315 316 315 315 315 315 315 315 315 315 314 314 314 314 314 314 314 314 315 316 318 327 330 330 330 330 331 331 330 330 329 327 326 326 324 324 324 322
313 314 313 314 315 315 315 315 315 315 315 314 314 314 315 315 314 314 314 314 314 314 314 314 314 314 314 317 325 329 330 331 330 331 331 330 329 328 327 326 325 325 323
313 314 313 314 315 315 315 315 315 314 314 314 314 313 313 314 313 313 313 312 311 311 311 311 312 313 314 314 314 315 319 324 327 328 329 329 329 329 328 328 327 325 326
313 312 312 314 315 315 315 314 313 313 313 313 313 313 313 312 312 312 312 311 309 309 309 309 310 311 312 313 314 314 314 315 316 321 324 325 326 327 328 328 327 327 325
313 312 312 315 315 315 313 313 313 313 313 312 312 312 312 311 310 309 308 307 307 307 308 308 309 309 311 312 312 313 313 314 315 315 317 319 321 323 324 325 326 326 325
312 312 312 314 314 313 313 313 313 312 311 310 310 309 309 309 307 306 305 305 305 305 306 306 307 307 308 308 310 311 312 312 313 314 315 317 318 319 319 322 323 324 324
313 312 311 310 309 312 312 312 310 308 307 306 306 306 307 305 304 304 303 303 303 304 304 305 305 305 306 306 308 308 309 308 310 311 312 313 314 315 315 317 319 321 322
313 311 308 307 310 311 310 310 308 306 305 304 304 303 304 302 301 300 300 300 300 301 301 301 300 302 304 304 306 305 305 307 309 309 310 310 311 312 313 314 315 317 318
311 309 306 306 309 309 308 306 304 303 302 301 301 301 298 298 297 297 297 297 297 298 298 297 299 298 300 303 302 304 306 307 307 307 305 306 308 308 309 312 314 315 316
309 307 309 307 306 306 304 301 299 299 298 298 298 297 296 295 295 295 295 295 295 295 295 296 296 296 300 298 301 303 301 300 299 300 302 304 305 306 307 309 310 313 314
309 309 306 305 304 303 299 298 297 297 296 296 294 293 293 293 293 293 293 293 293 292 292 295 293 295 295 296 299 298 296 296 296 300 299 302 302 300 303 304 305 307 309
306 304 302 302 301 298 298 297 296 295 294 293 291 290 290 290 290 290 290 290 290 290 291 290 291 292 292 295 297 294 294 295 295 298 298 299 295 296 299 302 303 302 304
303 301 300 300 298 297 296 295 294 292 290 289 289 288 288 288 288 288 288 288 288 289 288 289 290 290 291 293 292 291 293 294 294 296 297 294 293 295 296 298 299 300 301
301 300 299 298 296 294 294 292 290 289 288 288 288 287 287 287 287 287 287 287 287 287 287 287 288 290 290 291 289 289 293 292 293 295 294 293 293 293 295 297 297 298 299
299 298 297 295 293 292 290 288 288 287 287 287 286 286 286 286 286 286 286 286 286 286 286 286 287 288 288 287 287 289 290 291 293 293 293 292 292 293 295 297 299 300 300
297 295 293 292 290 288 288 287 286 286 286 286 286 285 285 285 285 285 285 285 285 285 285 286 287 287 287 287 288 289 290 291 292 292 292 291 291 294 296 298 301 302 302
294 291 290 289 288 287 287 286 286 285 285 285 285 285 285 285 285 285 285 285 285 285 285 286 286 287 287 287 288 289 289 290 290 290 290 291 293 295 295 295 296 298 297
290 289 288 287 287 286 286 285 285 285 285 285 285 284 284 284 284 284 284 284 284 285 286 286 287 287 287 287 288 288 289 289 289 289 290 292 292 293 293 293 294 293 293
288 288 287 286 286 285 285 285 285 285 285 284 284 284 284 284 284 284 283 284 284 285 286 286 286 286 287 287 288 289 288 288 289 289 290 290 290 291 291 292 292 292 292
287 287 286 286 285 285 285 285 284 285 284 284 284 283 284 284 283 283 283 284 284 285 285 285 286 286 286 287 287 287 287 288 287 288 288 287 288 290 290 291 291 291 290
Wind_Speed
5 22 24 23 19 15 11 10 6 21 33 34 31 31 33 31 30 29 30 33 33 33 34 36 38 38 37 39 38 38 37 37 36 28 28 37 38 39 41 41 44 47 45
10 12 20 21 22 21 18 14 12 14 9 28 32 31 31 28 31 30 32 33 33 34 35 37 40 41 38 39 40 37 32 31 28 21 11 7 18 32 39 40 44 42 41
6 6 10 17 21 25 23 21 17 12 13 2 18 22 18 17 20 21 25 28 31 35 36 38 40 39 38 36 35 34 32 28 27 30 17 3 6 2 10 28 35 35 36
4 5 8 16 20 20 23 23 22 22 18 15 12 5 11 16 21 22 23 26 27 30 31 35 40 41 39 37 36 33 34 30 30 24 34 37 22 7 7 14 22 26 34
6 7 7 13 16 20 23 23 23 24 21 17 16 15 14 14 14 15 17 19 20 21 21 27 38 40 40 41 38 33 30 30 31 30 27 26 31 31 13 12 14 23 32
7 7 11 13 17 18 19 21 24 24 24 23 22 21 20 19 19 19 19 20 21 20 20 22 22 33 36 39 41 38 34 33 32 30 31 28 13 12 10 12 14 17 31
7 6 7 9 12 15 17 18 20 22 21 22 22 22 22 21 21 21 21 23 24 25 25 25 25 23 22 31 35 33 34 36 33 32 33 33 32 32 32 23 14 13 27
6 6 5 7 9 11 13 15 17 19 20 22 22 22 21 21 21 22 23 23 25 25 26 27 26 26 25 21 22 29 34 35 36 36 34 35 35 33 32 28 14 14 13
7 7 7 6 5 7 10 12 15 17 21 21 22 23 23 22 23 23 24 26 27 27 28 27 27 27 27 28 29 26 25 28 32 34 35 35 35 34 34 33 32 15 14
8 7 7 6 3 3 7 12 17 20 20 21 22 22 22 23 24 25 28 28 30 31 31 32 32 31 30 28 28 30 31 31 30 27 28 31 32 34 35 35 34 31 18
7 7 6 6 3 3 13 18 19 21 23 23 22 22 22 23 23 24 26 28 29 31 32 32 32 31 31 31 31 31 30 30 31 32 31 29 30 28 30 32 32 31 31
8 7 6 4 3 12 15 19 20 20 20 20 21 22 22 24 26 28 30 30 27 28 28 29 30 30 30 30 30 30 31 28 27 27 28 28 29 29 29 28 30 32 34
7 4 4 6 11 15 17 19 20 20 22 23 24 25 26 26 28 31 32 33 32 31 30 29 29 29 30 30 29 29 26 29 27 26 27 28 29 30 30 30 29 30 31
7 5 6 7 15 17 18 18 19 21 22 22 23 25 25 26 29 32 32 32 32 31 31 31 32 31 30 30 29 33 33 29 26 26 27 28 28 28 31 31 32 31 30
7 7 6 6 13 17 18 18 19 19 20 20 23 22 22 27 30 30 31 32 32 32 33 35 32 34 32 27 36 36 29 25 26 26 28 29 30 33 35 33 30 29 29
7 8 8 8 12 15 13 14 15 18 18 21 22 21 27 29 28 29 30 30 31 31 33 33 33 34 30 36 37 32 24 25 27 29 30 29 29 28 33 30 34 35 32
9 7 7 9 12 11 10 13 16 19 21 23 21 25 26 26 26 28 28 29 29 31 31 28 32 31 33 34 36 28 31 30 30 28 31 31 28 35 33 35 35 34 32
7 7 8 10 9 8 10 12 17 18 20 18 23 26 27 26 27 28 28 29 28 29 28 30 31 31 33 33 27 31 29 30 31 30 29 29 36 35 34 35 34 36 34
8 10 10 8 6 9 11 16 16 16 18 18 22 24 25 26 26 27 28 28 29 28 31 30 31 33 32 27 28 36 32 30 31 30 27 33 34 35 36 36 35 37 38
10 8 7 3 5 9 11 11 11 14 15 19 22 23 24 26 26 27 28 28 28 30 28 31 29 29 26 27 34 36 30 31 30 28 33 33 33 37 40 39 36 34 39
8 5 4 5 7 8 9 9 12 15 17 20 22 23 24 26 25 27 29 28 28 29 28 28 29 25 26 32 34 33 32 30 30 31 33 35 38 41 46 46 41 36 41
4 4 3 5 7 9 10 12 14 17 19 21 23 25 26 26 26 28 27 26 27 25 27 27 23 26 28 31 32 34 33 35 33 33 35 39 43 47 45 44 40 39 41
3 4 4 6 8 10 12 15 19 21 23 24 26 27 27 26 25 25 26 24 24 24 24 23 25 26 29 31 32 32 35 36 37 34 40 44 42 38 35 36 40 35 30
5 5 5 7 10 12 15 19 22 22 23 25 26 24 23 25 24 23 22 23 22 23 23 25 25 28 30 30 29 33 32 35 34 37 39 36 33 30 32 32 32 28 24
3 4 7 10 13 16 20 22 23 23 24 23 23 22 23 24 26 25 24 25 25 25 29 28 28 27 26 29 38 36 37 37 38 42 30 27 27 29 29 30 29 27 22
6 8 11 13 17 19 22 24 24 23 23 25 23 24 25 24 25 26 29 27 28 29 30 29 28 29 31 35 37 37 37 37 38 29 24 24 25 26 27 27 28 27 19
Wind_Direction
7 38 34 32 30 25 19 25 9 240 221 216 219 224 226 232 238 245 252 255 257 255 253 253 255 254 251 250 249 249 251 251 249 252 258 259 259 260 258 260 261 257 255
31 24 32 32 34 33 28 18 15 21 246 229 224 226 230 238 242 251 256 259 261 261 257 253 254 254 248 247 249 245 243 248 246 237 249 269 269 258 255 255 256 256 256
63 35 28 35 38 36 29 30 25 27 39 318 241 231 237 249 256 259 263 266 266 264 260 259 258 255 251 246 246 245 240 246 250 238 227 235 236 339 258 245 246 250 252
67 59 40 39 42 43 51 49 45 43 36 33 37 327 275 270 273 279 283 287 285 278 271 265 258 257 254 250 248 245 244 239 245 245 233 238 250 246 286 261 257 255 255
92 70 55 50 50 54 55 54 52 48 41 40 38 34 22 4 354 345 334 329 322 314 309 293 271 260 254 255 253 247 244 243 243 242 242 239 244 253 252 266 277 266 266
82 70 65 60 57 60 61 57 55 51 47 47 43 39 31 20 13 7 359 354 350 345 341 346 315 279 270 257 255 252 250 251 247 248 247 242 237 242 241 252 254 261 266
86 70 57 49 51 48 52 53 52 51 46 44 41 37 33 29 23 16 11 8 5 0 357 350 344 339 309 283 270 258 253 253 252 250 250 248 246 250 254 252 258 263 264
112 100 90 68 48 42 43 45 44 42 36 33 29 25 21 18 18 16 14 13 8 3 357 355 351 347 341 331 304 284 271 264 268 261 251 250 252 249 249 251 261 268 263
149 143 123 108 77 46 36 35 37 38 33 30 22 21 21 22 15 8 3 360 357 354 348 346 342 338 336 334 331 325 309 295 287 281 274 267 261 255 252 252 250 253 266
160 148 147 148 136 70 43 41 46 43 34 22 15 14 13 11 8 5 2 359 353 351 349 347 344 340 337 332 327 321 315 313 308 303 297 289 282 277 271 263 256 248 250
158 154 164 176 147 81 68 59 48 40 28 21 19 16 13 8 4 3 358 352 349 346 343 341 338 335 332 330 327 323 318 311 305 308 304 300 300 292 281 276 268 256 248
162 158 163 152 66 81 68 56 49 39 25 15 10 9 3 1 359 356 352 350 344 341 338 336 333 330 328 326 323 321 317 320 323 323 317 308 306 302 298 292 283 270 260
154 135 92 74 69 75 61 53 43 33 18 13 8 2 2 360 357 353 350 347 343 338 336 334 331 328 325 323 324 319 331 324 318 315 311 305 303 299 296 293 289 286 281
144 123 87 68 75 67 53 42 30 22 13 7 4 359 359 357 350 344 342 341 339 336 335 334 330 328 328 325 326 330 323 319 315 316 314 309 305 300 300 299 295 293 290
121 116 90 77 62 48 39 33 24 13 6 4 360 359 355 349 347 345 341 338 337 334 332 330 330 328 325 326 326 323 327 326 324 321 319 313 309 309 305 297 291 290 291
128 96 90 73 56 49 41 29 19 9 7 2 359 358 353 349 345 341 337 334 332 330 327 325 327 321 321 321 324 328 334 334 327 322 321 316 313 315 313 311 311 302 291
95 88 80 73 55 42 41 26 10 5 4 1 1 355 350 343 337 333 331 329 325 324 320 318 321 314 316 315 320 336 337 330 324 318 321 317 318 316 310 311 309 306 299
101 82 71 53 47 49 24 9 9 8 360 0 352 345 340 333 329 326 323 321 322 320 319 319 314 316 314 315 326 339 334 323 315 310 311 311 311 309 309 309 307 303 299
106 99 82 56 32 20 15 10 7 358 350 346 341 336 332 325 323 322 321 322 321 320 318 316 315 312 313 323 339 340 325 317 313 307 308 309 305 304 310 310 303 300 298
100 87 60 58 27 13 11 4 353 342 334 335 331 327 324 322 319 319 321 318 316 316 317 313 311 314 325 329 331 325 318 315 312 311 311 310 307 307 308 310 305 297 295
98 66 40 39 10 4 359 355 339 331 329 328 326 324 323 322 319 318 317 315 316 313 310 314 311 320 325 322 321 324 323 317 316 316 313 311 310 310 310 308 300 291 293
95 74 50 12 357 357 354 342 331 331 329 328 326 325 323 319 315 313 314 314 312 314 314 310 316 321 321 319 321 323 323 322 324 317 313 310 310 311 311 313 307 305 305
106 79 34 356 346 342 341 333 331 329 329 328 325 322 319 315 315 316 314 314 318 315 314 318 320 320 321 318 320 323 325 326 322 317 312 310 310 312 318 317 319 321 316
79 40 4 339 331 339 332 328 327 327 327 324 321 317 313 317 316 314 314 314 314 317 320 320 320 318 317 317 323 327 327 327 324 320 316 314 314 316 318 322 322 319 319
43 354 335 331 329 330 327 327 325 326 323 322 317 316 317 317 317 316 316 317 316 317 318 315 314 313 313 320 324 325 329 326 326 323 323 321 325 321 324 326 322 318 311
349 337 329 323 324 325 323 321 326 325 320 319 317 314 313 311 312 313 314 315 313 315 315 313 312 315 317 319 323 326 327 329 330 330 327 324 320 319 322 322 319 320 301